This is the latest recevied weather packets stored in our database for station/object IU2EVW-13. If no packets are shown the sender has not sent any weather packets the latest 10 day(s).
| Time | Temp. | Humidity | Pressure | Rain* | Wind** | Luminosity | Snow |
|---|---|---|---|---|---|---|---|
| 1777651103 | 22.78° C | 23% | 1025.5 hPa | - | - | - | - |
| 1777649902 | 22.22° C | 24% | 1025.7 hPa | - | - | - | - |
| 1777648700 | 21.67° C | 24% | 1025.9 hPa | - | - | - | - |
| 1777647499 | 22.78° C | 22% | 1026 hPa | - | - | - | - |
| 1777646297 | 23.33° C | 23% | 1026.2 hPa | - | - | - | - |
| 1777645096 | 20.56° C | 28% | 1026.5 hPa | - | - | - | - |
| 1777643894 | 20.56° C | 30% | 1026.7 hPa | - | - | - | - |
| 1777642693 | 19.44° C | 30% | 1027 hPa | - | - | - | - |
| 1777641768 | 19.44° C | 29% | 1027.2 hPa | - | - | - | - |
| 1777640567 | 18.89° C | 31% | 1027.3 hPa | - | - | - | - |
| 1777639365 | 18.33° C | 31% | 1027.7 hPa | - | - | - | - |
| 1777638164 | 18.33° C | 31% | 1027.9 hPa | - | - | - | - |
| 1777636963 | 17.78° C | 32% | 1028 hPa | - | - | - | - |
| 1777635761 | 16.67° C | 33% | 1028.1 hPa | - | - | - | - |
| 1777634560 | 16.11° C | 36% | 1028.5 hPa | - | - | - | - |
| 1777633358 | 15.56° C | 37% | 1028.7 hPa | - | - | - | - |
| 1777632157 | 15° C | 38% | 1029 hPa | - | - | - | - |
| 1777630951 | 14.44° C | 36% | 1029.1 hPa | - | - | - | - |
| 1777629750 | 13.89° C | 39% | 1029.4 hPa | - | - | - | - |
| 1777628548 | 12.78° C | 37% | 1029.3 hPa | - | - | - | - |
| 1777627347 | 12.22° C | 40% | 1029.4 hPa | - | - | - | - |
| 1777626146 | 12.22° C | 44% | 1029.4 hPa | - | - | - | - |
| 1777624944 | 11.11° C | 43% | 1029.4 hPa | - | - | - | - |
| 1777623743 | 11.11° C | 44% | 1029.4 hPa | - | - | - | - |
| 1777622541 | 10.56° C | 49% | 1029.4 hPa | - | - | - | - |
* Rain since midnight (hover to see other rain measurements)
** Current wind speed in m/s (hover to see current wind gust speed)